Погода Поярково

Погода Поярково : погода сейчас, прогноз погоды и архив. Всё, что Вы хотите узнать о погоде Поярково!

Поиск расширенной информации на нашем сайте:

Другие новости

Новости СМИ2

Главная страница сайта

Новости сайта

03.07.2017

Напоминаем, что на нашем специализированном сайте Метеоцентр.Азия вы можете получить высокодетализированные автоматические прогнозы погоды по пунктам России, СНГ и мира в авиационном формате (включающие направление и скорость ветра, видимость, явления погоды, количество и форму облачности, нижнюю и верхнюю границу облачности).

Рекомендуем: новая баня екатеринбург

Погода Поярково - сегодня

Время (UTC), дата Ветер
(°,м/с) 
Видим.   Явления Облачность Т
(°С)
Тd
(°С)
f(%) Тe
(°С)
Pmin
(гПа)
dP
(гПа)
Po
(мм)
O2
(г/м3)
Тmin Tmax R s Состояние
почвы
03 21.04.18 330 (СЗ) 7-12{14}  20000 м    ясно 
+9.9 -15.7 15 +8  1019.6  1.3  754  295           
06 21.04.18 340 (С) 5-10{13}  20000 м    ясно 
+12.3 -15.2 13 +11  1020.1  0.6  755  292           
09 21.04.18 330 (СЗ) 5-10{13}  20000 м    ясно 
+11.6 -16.7 12 +11  1021.2  1.1  755  293           
15 21.04.18 350 (С) н/о    ясно 
+2 -15.1 27 +1  1025.7  1.5  758  305           
18 21.04.18 310 (СЗ) н/о    ясно 
-0.7 -13.6 37 -2  1026.7  0.9  759  308           
21 21.04.18 300 (СЗ) 20000 м    ясно 
-0.9 -13 39 -2  1028  1.2  760  308           
03 22.04.18 330 (СЗ) 20000 м    ясно 
+13.3 -14.9 13 +15  1027.1  -1.5  760  293           
06 22.04.18 360 (С) 3{10}  20000 м    ясно 
+15.1 -13.5 13 +15  1025.4  -1.6  759  291           
09 22.04.18 350 (С) 20000 м    ясно 
+13.9 -13.9 13 +14  1025.2  -0.2  758  292           
12 22.04.18 050 (СВ) н/о    ясно 
+4.1 -9.7 36 +5  1026.5  0.8  759  302    +15.4       
15 22.04.18 тихо ()   н/о    ясно 
-1.3 -8.8 57 -1  1027.1  0.3  759  308           
18 22.04.18 070 (В) н/о    ясно 
-3.4 -9.4 63 -3  1027.4  0.2  759  311           
21 22.04.18 080 (В) 20000 м    3/0 верхняя 
[Ci fib]
-3.4 -9.3 64 -3  1027  -0.4  759  311           
00 23.04.18 130 (ЮВ) 20000 м    3/0 верхняя 
[Ci fib]
+9.7 -7.4 29 +10  1025  -1.2  758  296  -4.1        сухая 
03 23.04.18 210 (ЮЗ) 20000 м    3/0 верхняя 
[Ci fib]
+20 -8.8 13 +20  1021.3  -3.2  756  285           
06 23.04.18 260 (З) 20000 м    1/1 1000 м 
[Cu hum]
+23.6 -9.5 10 +24  1017.5  -3.5  753  280           
09 23.04.18 200 (Ю) 20000 м    4/0 средняя, верхняя 
[Ac cuf|Ci]
+22.1 -10.4 10 +22  1015.4  -2.2  752  281           
12 23.04.18 220 (ЮЗ) н/о    ясно 
+14.6 -6.9 22 +15  1015.7  752  288    +23.8       
15 23.04.18 240 (ЮЗ) 3{10}  н/о    ясно 
+14.2 -5.5 25 +14  1015.9  0.2  752  288           
18 23.04.18 250 (З) н/о    ясно 
+12.3 -5.8 28 +12  1014.7  -1.3  751  290           
21 23.04.18 240 (ЮЗ) 20000 м    10/0 средняя, верхняя 
[Ac lent|Ci fib]
+10.4 -6.6 30 +11  1014.1  -0.7  750  292           
00 24.04.18 260 (З) 20000 м    4/0 верхняя 
[Ci fib]
+17.5 -8.2 16 +18  1013.1  -0.6  750  285  +10.2        сухая 
06 24.04.18 260 (З) 4{11}  20000 м    4/4 1000 м 
[Cu hum]
+25.2 -9.3 9 +25  1008.5  -2.3  747  276           
09 24.04.18 250 (З) 20000 м    1/1 1000 м 
[Cu hum]
+23.3 -8.5 11 +23  1007.1  -1.4  746  278           
15 24.04.18 240 (ЮЗ) н/о    1/0 верхняя 
[Ci fib]
+16.5 -7 19 +17  1007.5  -0.3  746  284           
Время (UTC), дата Ветер
(°,м/с) 
Видим.   Явления Облачность Т
(°С)
Тd
(°С)
f(%) Тe
(°С)
Pmin
(гПа)
dP
(гПа)
Po
(мм)
O2
(г/м3)
Тmin Tmax R s Состояние
почвы

Для получения пояснительной информации подведите курсор к названию столбца.

ПОГОДА Поярково - архив

Всё, что Вы хотите узнать о погоде Поярково - удобно и подробно!

Выберите нужную дату (начиная с 1 января 2015* года) и нажмите кнопку "Найти".
Будут отображены архивные сводки погоды по пункту Поярково, начиная с указанной даты.


Отображать данные в формате CSV (для использования в таблицах Excel)


Внимание! Наш архив погоды предназначен исключительно для личного некоммерческого использования в познавательных целях. Если Вам необходимы официальные справки о состоянии погоды (для производственных, юридических, коммерческих и т.п. целей), обращайтесь в органы Росгидромета.

*Примечание: данная дата относится к архиву по метеостанциям СССР (Россия, СНГ, Балтия).
Архив по метеостанциям Зарубежной Европы и Азии (кроме Китая) хранится 10 дней, по другим регионам земного шара (Китай, Африка, Америка, Австралия, Океания) - 1 день.

Поярково - район местоположения метеостанции


Название, широта, долгота, высота метеостанции:
Поярково 49.6°ш. 128.6°д. 115 м над ур. моря [Российская Федерация]

Дополнительная информация

В oтличие oт бoльшинства пoгoдных сайтoв мы публикуем пoдрoбную метеoинфoрмацию в детальнoм прoфессиoнальнoм фoрмате.

Характеристики температуры и влажнoсти вoздуха измеряются на высoте 2 м в тени вдали oт зданий и деревьев.
Скoрoсть ветра измеряется на высoте 10 м (на урoвне рoста челoвека скoрoсть ветра ниже в 1.5-2 раза). Если метеoстанция нахoдится в гoрoде или в лесу, тo скoрoсть ветра занижена на 2-4 м/с пo сравнению с oткрытым местoм. Скoрoсть ветра над акватoриями крупных рек и oзёр, а также на вершинах хoлмoв на 2-5 м/с выше, чем в oбычных услoвиях.
Атмoсфернoе давление в разных тoчках местнoсти мoжет значительнo oтличаться oт давления на метеoстанции, в зависимoсти oт услoвий рельефа (при пoдъёме на 10 м давление пoнижается примернo на 1 мм рт.ст.).